Location: Staunton
(38.1490°N, 79.0720°W)
Time: 00:41:26
(UTC-04:00)

ISS - Pass Details

Date: 06 May 2021
Orbit: 417 x 422 km, 51.6° (Epoch: 18 May)

Event Time Altitude Azimuth Distance (km) Brightness Sun altitude
Exits shadow 03:00:04 14° 9° (N) 1,270 -0.6 -29.7°
Drops below altitude 10° 03:00:59 10° 22° (NNE) 1,503 0.0 -29.6°
Sets 03:03:33 0° 42° (NE) 2,370 1.2 -29.4°
